Location: Tel Aviv
(32.0670°N, 34.7670°E)
Time: 21:04:20
(UTC+03:00)

Transit 2A - Pass Details

Date: 29 May 2024
Orbit: 593 x 959 km, 66.7° (Epoch: 14 June)

Event Time Altitude Azimuth Distance (km) Brightness Sun altitude
Rises 20:21:56 0° 183° (S) 2,849 8.7 -8.4°
Reaches altitude 10° 20:24:16 10° 174° (S) 1,979 7.8 -8.8°
Maximum altitude 20:28:17 34° 109° (ESE) 1,061 6.3 -9.5°
Drops below altitude 10° 20:32:39 10° 44° (NE) 2,150 8.2 -10.3°
Sets 20:35:15 0° 36° (NE) 3,134 9.2 -10.8°
